[[{"header":{"parameterUnit":"m.s-1","parameterCategory":1,"la1":30.2991,"la2":30.254,"lo1":-89.0895,"lo2":-89.0444,"dy":0.0017,"dx":0.0017,"nx":28,"ny":28,"refTime":"2023-08-11T09:00:00:Z","depth":0,"parameterNumber":2,"parameterNumberName":"U-component_of_WINDS"},"data":[0,0,0,0,0,0,0,0,0,0,0,0,0,0,0,0,0,0,0,0,0,0,0,0,0,0,0,0,0,0,0,0,0,0,0,0,0,0,0,0,0,0,0,0,0,0,0,0,0,0,0,0,0,0,0,0,0,0,4.5144,4.5146,0,4.5259,4.5261,4.5262,4.5154,4.515,4.5146,4.5142,4.5263,4.527,4.5277,0,0,0,0,0,0,0,0,0,0,0,0,0,4.4833,4.4839,4.5144,4.5146,4.5147,4.5259,4.5261,4.5262,4.5155,4.515,4.5145,4.514,4.5261,4.5269,4.5278,0,0,0,0,0,0,0,0,0,0,0,0,0,4.496,4.4841,4.5144,4.5107,4.5105,4.5259,4.5261,4.5263,4.5156,4.515,4.5143,4.5137,4.5258,4.5269,4.5279,4.5476,0,0,4.5313,4.5317,0,0,0,0,0,0,0,0,4.4953,4.4972,4.5111,4.511,4.5108,4.5186,4.5195,4.5334,4.5158,4.5137,4.5142,4.5134,4.5243,4.5255,4.5291,4.5482,4.5487,4.5314,4.532,4.5325,4.5328,0,0,0,0,0,0,0,4.4945,4.4966,4.519,4.5113,4.5111,4.5085,4.5096,4.5221,4.5225,4.5138,4.5131,4.5146,4.5241,4.528,4.5293,4.5489,4.5313,4.5323,4.533,4.5334,4.5844,4.585,0,0,0,0,0,0,4.4939,4.496,4.5186,4.5193,4.5013,4.5096,4.5108,4.5167,4.5223,4.5226,4.5151,4.514,4.5265,4.528,4.5296,4.5528,4.5325,4.5335,4.5341,4.5837,4.5845,4.5853,0,0,0,0,0,0,4.4933,4.4961,4.5182,4.5074,4.5101,4.5108,4.5176,4.5173,4.5212,4.5233,4.5233,4.5191,4.526,4.5281,4.5431,4.553,4.534,4.535,4.5829,4.5839,4.5849,4.5994,0,0,0,0,0,0,4.4925,4.4959,4.5034,4.5077,4.5107,4.5315,4.5182,4.518,4.5231,4.5218,4.527,4.5273,4.5257,4.5415,4.5442,4.5542,4.5358,4.582,4.5833,4.5846,4.598,4.6008,4.6032,0,0,0,0,0,4.4914,4.5072,4.5038,4.5066,4.52,4.5321,4.5338,4.5315,4.524,4.5315,4.5327,4.5271,4.5516,4.5432,4.5461,4.5566,4.5813,4.5829,4.5845,4.5969,4.6003,4.6031,0,0,0,0,0,0,4.5043,4.5077,4.504,4.5217,4.5266,4.5302,4.5396,4.5352,4.5425,4.541,4.538,4.5393,4.5551,4.5574,4.5479,4.5757,4.5652,4.5675,4.5737,4.5769,4.5794,4.5785,4.5367,0,0,0,0,0,4.5091,4.5185,4.5211,4.5364,4.539,4.5389,4.5441,4.5419,4.547,4.549,4.5514,4.5566,4.5654,4.5713,4.5796,4.5983,4.5992,4.6069,4.6095,4.6116,4.6136,4.6233,4.6267,4.5905,4.5904,4.5904,0,0,4.5193,4.5224,4.5285,4.539,4.5426,4.5524,4.5408,4.5517,4.5589,4.5507,4.5649,4.5669,4.5724,4.5893,4.5969,4.5917,4.6237,4.6136,4.6153,4.6161,4.6253,4.6287,4.6317,4.5915,4.5913,4.5912,0,0,4.5428,4.5462,4.5591,4.5629,4.5683,4.5681,4.5712,4.5754,4.5763,4.5905,4.5844,4.593,4.6084,4.6124,4.6166,4.6413,4.6363,4.6441,4.6575,4.6671,4.6699,4.6724,4.681,4.6841,4.646,4.6461,4.6461,0,4.5548,4.5692,4.5664,4.5776,4.5823,4.5752,4.5882,4.592,4.6,4.6034,4.5974,4.6162,4.6195,4.6371,4.6431,4.6468,4.6501,4.6434,4.6697,4.6722,4.6745,4.6826,4.6859,4.647,4.6469,4.6468,4.6467,0,4.5835,4.5936,4.6034,4.611,4.6168,4.629,4.6279,4.6341,4.6314,4.6318,4.6462,4.6498,4.6585,4.6625,4.6601,4.6797,4.6763,4.6701,4.6595,4.6789,4.6864,4.6896,4.6482,4.6479,4.6476,4.6474,0,0,4.6156,4.6212,4.6248,4.628,4.6334,4.6411,4.6528,4.6611,4.6664,4.6722,4.6818,4.6947,4.6889,4.6936,4.6915,4.7,4.7189,4.6927,4.6928,4.6972,4.7404,4.7448,4.7485,4.7157,4.7163,4.7167,4.7398,0,4.639,4.6591,4.6568,4.676,4.6851,4.6784,4.6885,4.6929,4.6935,4.7014,4.7021,4.7112,4.703,4.7057,4.7138,4.7149,4.7275,4.7132,4.7245,4.7249,4.7231,4.7525,4.7573,4.7789,4.7428,4.7433,4.7437,0,4.669,4.6755,4.6956,4.6992,4.703,4.7121,4.7193,4.727,4.7318,4.7316,4.7367,4.7331,4.7447,4.7339,4.7498,4.7401,4.7446,4.7459,4.7466,4.7474,4.7353,4.7539,4.7858,4.789,4.7484,4.748,4.7476,0,4.6899,4.7037,4.7174,4.7204,4.7251,4.7317,4.7339,4.7381,4.7431,4.7495,4.7527,4.7605,4.7647,4.7707,4.7693,4.7616,4.7855,4.7746,4.7855,4.7856,4.7908,4.7904,4.8236,4.7941,4.794,4.794,4.7939,0,4.7162,4.7287,4.7268,4.7352,4.749,4.7461,4.7598,4.7613,4.7649,4.7735,4.7682,4.7764,4.774,4.782,4.781,4.7941,4.7962,4.7963,4.7959,4.7967,4.7966,4.7994,4.7978,4.7948,4.7946,4.7945,4.7943,0,4.7419,4.7412,4.7556,4.7587,4.7598,4.7698,4.7724,4.7803,4.7805,4.7913,4.7937,4.794,4.8031,4.8022,4.8126,4.8119,4.8281,4.826,4.8264,4.8258,4.8367,4.8356,4.8727,4.8773,4.845,4.8453,4.8456,0,4.7586,4.768,4.7721,4.7773,4.7799,4.7885,4.7935,4.7911,4.7965,4.8025,4.8096,4.8182,4.825,4.8399,4.841,4.8488,4.8467,4.8592,4.8478,4.8482,4.8465,4.8459,4.8467,4.8613,4.8617,4.862,4.8622,0,4.7882,4.7873,4.7947,4.8019,4.808,4.8136,4.8187,4.8233,4.8213,4.8277,4.8368,4.842,4.8524,4.8609,4.8683,4.8706,4.8661,4.8658,4.8687,4.8695,4.8693,4.8692,4.8322,4.8649,4.8647,4.8645,4.8643,4.8642,4.8097,4.8176,4.8216,4.8299,4.8334,4.8382,4.8456,4.8466,4.8541,4.8622,4.8604,4.8706,4.8749,4.8842,4.8873,4.8953,4.8908,4.8951,4.8961,4.8971,4.8982,4.8681,4.8967,4.8966,4.8965,4.8965,4.8964,0,4.8388,4.8409,4.8486,4.8557,4.8622,4.8573,4.8626,4.8683,4.8774,4.8817,4.8883,4.8987,4.9069,4.9086,4.9164,4.9224,4.9205,4.9246,4.924,4.9245,4.902,4.8986,4.9259,4.9259,4.9259,4.9259,4.9259,4.9259,4.8546,4.8676,4.8671,4.8817,4.8838,4.8937,4.8971,4.9014,4.9048,4.9166,4.9233,4.9243,4.9275,4.9354,4.9427,4.943,4.946,4.9508,4.9503,4.9291,4.9262,4.9233,4.9201,4.9515,4.9516,4.9721,4.9723,4.9724]},{"header":{"parameterUnit":"m.s-1","parameterCategory":1,"la1":30.2991,"la2":30.254,"lo1":-89.0895,"lo2":-89.0444,"dy":0.0017,"dx":0.0017,"nx":28,"ny":28,"refTime":"2023-08-11T09:00:00:Z","depth":0,"parameterNumber":3,"parameterNumberName":"V-component_of_WINDS"},"data":[0,0,0,0,0,0,0,0,0,0,0,0,0,0,0,0,0,0,0,0,0,0,0,0,0,0,0,0,0,0,0,0,0,0,0,0,0,0,0,0,0,0,0,0,0,0,0,0,0,0,0,0,0,0,0,0,0,0,5.9645,5.9646,0,5.9757,5.9758,5.976,5.9726,5.9723,5.9721,5.9719,5.9828,5.9833,5.9838,0,0,0,0,0,0,0,0,0,0,0,0,0,5.9393,5.9398,5.9645,5.9646,5.9647,5.9757,5.9758,5.976,5.9726,5.9723,5.972,5.9718,5.9826,5.9832,5.9838,0,0,0,0,0,0,0,0,0,0,0,0,0,5.9503,5.9399,5.9644,5.9644,5.9645,5.9757,5.9758,5.976,5.9727,5.9723,5.972,5.9716,5.9824,5.9831,5.9839,5.9956,0,0,5.9862,5.9866,0,0,0,0,0,0,0,0,5.9497,5.9512,5.9642,5.9644,5.9645,5.9724,5.971,5.9826,5.9727,5.9695,5.9719,5.9715,5.9796,5.9805,5.9834,5.9961,5.9966,5.9863,5.9868,5.9871,5.9873,0,0,0,0,0,0,0,5.9489,5.9507,5.9689,5.9644,5.9646,5.9635,5.9647,5.9731,5.9763,5.9698,5.9696,5.971,5.9796,5.9827,5.9836,5.9968,5.9863,5.987,5.9874,5.9877,6.0192,6.0196,0,0,0,0,0,0,5.9482,5.9501,5.9685,5.9692,5.9561,5.9643,5.9656,5.9702,5.9763,5.9769,5.9713,5.9708,5.9815,5.9827,5.984,5.9978,5.9871,5.9878,5.9882,6.0188,6.0193,6.0197,0,0,0,0,0,0,5.9476,5.9498,5.9681,5.9596,5.9619,5.9651,5.9703,5.9706,5.9737,5.9774,5.9779,5.9739,5.9813,5.9829,5.9927,5.9982,5.9881,5.9888,6.0184,6.019,6.0195,6.0257,0,0,0,0,0,0,5.9469,5.9497,5.9544,5.9598,5.9623,5.9769,5.9706,5.9711,5.9751,5.9746,5.98,5.9805,5.9812,5.9916,5.9935,5.999,5.9894,6.0179,6.0187,6.0193,6.0251,6.0265,6.0277,0,0,0,0,0,5.9461,5.9556,5.9546,5.9569,5.9683,5.9772,5.9786,5.9793,5.9756,5.9801,5.9824,5.9804,5.9973,5.9926,5.9947,6.0006,6.0176,6.0184,6.0193,6.0245,6.0262,6.0276,0,0,0,0,0,0,5.9506,5.9563,5.9553,5.967,5.9716,5.9766,5.9824,5.9812,5.9869,5.9861,5.9865,5.9878,5.9977,6.0002,5.9948,6.012,6.0068,6.0081,6.0101,6.0117,6.013,6.0121,5.9901,0,0,0,0,0,5.953,5.96,5.9645,5.9743,5.9768,5.9792,5.9831,5.9832,5.988,5.9899,5.9929,5.9975,6.0037,6.0079,6.0139,6.0254,6.0263,6.0305,6.0318,6.0328,6.0339,6.0397,6.0415,6.0225,6.0225,6.0225,0,0,5.958,5.962,5.9663,5.9754,5.979,5.9859,5.9809,5.9885,5.9935,5.991,6.0004,6.0028,6.0078,6.0184,6.0232,6.0207,6.0393,6.0339,6.0347,6.0352,6.0408,6.0426,6.0442,6.0231,6.023,6.0229,0,0,5.9705,5.9744,5.9829,5.9866,5.9922,5.9937,5.9957,6.0009,6.0024,6.0119,6.0101,6.0159,6.0269,6.0305,6.0337,6.0474,6.0455,6.0493,6.056,6.0617,6.0632,6.0645,6.0691,6.0708,6.0504,6.0504,6.0504,0,5.9759,5.9865,5.9873,5.995,5.9989,5.9971,6.0054,6.009,6.0162,6.0188,6.0159,6.0294,6.0327,6.044,6.0473,6.0501,6.0521,6.0486,6.063,6.0643,6.0656,6.0699,6.0716,6.0508,6.0508,6.0507,6.0507,0,5.9927,6.0,6.0061,6.0133,6.0178,6.0258,6.0276,6.0321,6.0318,6.0335,6.0429,6.0468,6.0535,6.0562,6.0559,6.0673,6.0655,6.0629,6.0576,6.0678,6.0718,6.0735,6.0514,6.0512,6.0511,6.051,0,0,6.0084,6.0158,6.018,6.0211,6.027,6.0326,6.0403,6.047,6.0507,6.0557,6.0619,6.0712,6.0687,6.0723,6.0725,6.0776,6.0877,6.0742,6.0743,6.0763,6.1,6.1018,6.1038,6.0866,6.0869,6.0872,6.0995,0,6.0212,6.0351,6.0359,6.0484,6.0549,6.0532,6.0599,6.0641,6.0659,6.0715,6.0734,6.0798,6.0762,6.0784,6.0833,6.0854,6.0924,6.0846,6.0921,6.0924,6.0907,6.106,6.108,6.1194,6.1011,6.1014,6.1016,0,6.038,6.0436,6.0567,6.0615,6.0643,6.0703,6.0763,6.0819,6.0864,6.0873,6.0914,6.0908,6.0984,6.093,6.1033,6.0979,6.1011,6.1025,6.103,6.1035,6.0974,6.1066,6.1232,6.1248,6.1042,6.104,6.1038,0,6.0478,6.0586,6.0677,6.0704,6.0763,6.0806,6.0832,6.0875,6.0913,6.0965,6.0989,6.1049,6.108,6.1125,6.1134,6.1094,6.1236,6.1184,6.1242,6.1242,6.1271,6.1269,6.1441,6.1296,6.1296,6.1295,6.1295,0,6.0618,6.0698,6.0722,6.0778,6.0866,6.0874,6.096,6.0982,6.1021,6.1078,6.1067,6.1121,6.113,6.1186,6.1193,6.1275,6.129,6.1297,6.1297,6.1297,6.1295,6.1315,6.1306,6.13,6.1299,6.1298,6.1297,0,6.0741,6.0761,6.0859,6.0907,6.092,6.0983,6.1022,6.1074,6.109,6.1164,6.1181,6.1206,6.127,6.1283,6.1359,6.1364,6.1461,6.1455,6.1446,6.1444,6.1501,6.1494,6.169,6.1714,6.1556,6.1557,6.1559,0,6.0829,6.089,6.0944,6.0983,6.1011,6.1074,6.1113,6.1122,6.1163,6.1219,6.1263,6.1327,6.1378,6.1481,6.1503,6.1561,6.1554,6.1619,6.1562,6.1559,6.1551,6.1546,6.1551,6.1628,6.163,6.1632,6.1633,0,6.098,6.0986,6.1044,6.1105,6.1152,6.12,6.1246,6.1278,6.1292,6.1338,6.1404,6.1444,6.1521,6.1583,6.164,6.1664,6.165,6.1651,6.1667,6.1665,6.1656,6.1659,6.1472,6.1645,6.1644,6.1643,6.1643,6.1642,6.1086,6.1139,6.1184,6.1248,6.1284,6.1326,6.1377,6.1399,6.1455,6.152,6.1521,6.1593,6.1634,6.1709,6.1737,6.1791,6.177,6.1794,6.18,6.1805,6.1808,6.165,6.1801,6.1801,6.1801,6.18,6.18,0,6.1234,6.1263,6.1322,6.1386,6.1435,6.142,6.1469,6.1511,6.1574,6.1615,6.1666,6.174,6.1799,6.1827,6.1885,6.1922,6.1917,6.1937,6.1933,6.1938,6.1825,6.1804,6.194,6.194,6.194,6.194,6.194,6.194,6.1317,6.1404,6.1415,6.1518,6.1546,6.1617,6.1646,6.1683,6.1716,6.18,6.185,6.1868,6.1902,6.1962,6.2015,6.2021,6.2041,6.2064,6.2067,6.196,6.1946,6.1932,6.1913,6.2069,6.2069,6.2174,6.2175,6.2176]}]]